Date String (YYYY-MM-DD hh:mm:ss) UTC,Instrument flags,absolute air pressure of the measurement (hPa),sample flow rate (lpm),inlet stack bypass flow (lpm),air temperature of the measurement (°C),ambient temperature measured by the external sensor (°C),aerosol sample conditioner tube jacket temperature (°C),OPC LED temperature (°C),internal box temperature (°C),relative humidity of the measurement (%),span deviation,mass concentration of particles derived from Lorenz-Mie calculation of OPC scattering (μg/m³),mass concentration of particles derived from Lorenz-Mie calculation of OPC scattering (μg/m³),mass concentration of particles derived from Lorenz-Mie calculation of OPC scattering (μg/m³)
DateTimeUTC,F1_M11,P_M11,Q1_M11,Q2_M11,T1_M11,T2_M11,T3_M11,T4_M11,T5_M11,U1_M11,ZSPAN_M11,X0_M11,X2_M11,X1_M11
2023-09-05 09:00:00,SystemResetWarning,0827.7,5.01,000.00,028.2,026.9,000.0,036.6,029.8,18.7,0000.0,0003.45,0001.19,0000.85
2023-09-05 09:01:00,SystemResetWarning,0827.7,5.01,000.00,028.2,027.0,000.0,036.6,029.8,18.6,0000.0,0003.15,0001.17,0000.84
2023-09-05 09:02:00,SystemResetWarning,0827.7,5.00,000.00,028.3,027.0,000.0,036.6,029.9,18.7,0000.0,0003.38,0001.16,0000.84
2023-09-05 09:03:00,SystemResetWarning,0827.7,5.00,000.00,028.3,027.0,000.0,036.6,029.9,19.5,0000.0,0002.94,0001.16,0000.83
2023-09-05 09:04:00,SystemResetWarning,0827.7,5.00,000.00,028.3,027.1,000.0,036.7,029.9,19.9,0000.0,0002.52,0001.14,0000.83
2023-09-05 09:05:00,SystemResetWarning,0827.7,4.99,000.00,028.3,027.1,000.0,036.7,029.9,21.3,0000.0,0002.43,0001.12,0000.82
2023-09-05 09:06:00,SystemResetWarning,0827.7,5.00,000.00,028.4,027.1,000.0,036.7,029.9,22.5,0000.0,0002.64,0001.12,0000.83
2023-09-05 09:07:00,SystemResetWarning,0827.7,5.00,000.00,028.4,027.2,000.0,036.7,030.0,22.7,0000.0,0002.78,0001.13,0000.83
2023-09-05 09:08:00,SystemResetWarning,0827.8,5.00,000.00,028.4,027.2,000.0,036.7,030.0,22.7,0000.0,0002.81,0001.14,0000.83
2023-09-05 09:09:00,SystemResetWarning,0827.9,5.00,000.00,028.4,027.2,000.0,036.7,030.0,22.8,0000.0,0002.90,0001.17,0000.83
2023-09-05 09:10:00,SystemResetWarning,0827.7,5.00,000.00,028.4,027.3,000.0,036.8,030.1,22.8,0000.0,0003.64,0001.17,0000.84
2023-09-05 09:11:00,SystemResetWarning,0827.7,5.00,000.00,028.5,027.3,000.0,036.8,030.1,22.4,0000.0,0003.93,0001.17,0000.85
2023-09-05 09:12:00,SystemResetWarning,0827.8,5.00,000.00,028.5,027.4,000.0,036.8,030.1,22.7,0000.0,0004.04,0001.19,0000.85
2023-09-05 09:13:00,SystemResetWarning,0827.9,5.01,000.00,028.5,027.4,000.0,036.8,030.1,22.7,0000.0,0004.03,0001.19,0000.85
2023-09-05 09:14:00,SystemResetWarning,0828.0,5.00,000.00,028.5,027.4,000.0,036.8,030.2,22.7,0000.0,0003.81,0001.20,0000.84
2023-09-05 09:15:00,SystemResetWarning,0828.0,5.00,000.00,028.6,027.4,000.0,036.8,030.2,22.7,0000.0,0003.84,0001.20,0000.84
2023-09-05 09:16:00,SystemResetWarning,0827.9,5.00,000.00,028.6,027.4,000.0,036.9,030.2,22.4,0000.0,0003.98,0001.27,0000.85
2023-09-05 09:17:00,SystemResetWarning,0827.8,5.00,000.00,028.6,027.5,000.0,036.9,030.2,22.3,0000.0,0004.27,0001.26,0000.85
2023-09-05 09:18:00,SystemResetWarning,0828.1,4.98,000.00,028.6,026.3,000.0,036.8,029.9,22.3,0000.0,0004.49,0001.24,0000.85
2023-09-05 09:19:00,SystemResetWarning,0828.1,5.01,000.00,028.4,024.6,000.0,036.7,029.5,22.3,0000.0,0004.91,0001.26,0000.85
2023-09-05 09:20:00,SystemResetWarning,0828.0,5.00,000.00,028.3,024.3,000.0,036.7,029.3,22.5,0000.0,0005.54,0001.27,0000.85
2023-09-05 09:21:00,SystemResetWarning,0827.9,5.00,000.00,028.2,024.5,000.0,036.7,029.2,22.4,0000.0,0004.88,0001.28,0000.85
2023-09-05 09:22:00,SystemResetWarning,0828.1,5.00,000.00,028.1,024.9,000.0,036.6,029.2,22.6,0000.0,0004.66,0001.30,0000.86
2023-09-05 09:23:00,SystemResetWarning,0828.1,5.00,000.00,028.1,025.3,000.0,036.6,029.4,23.0,0000.0,0004.57,0001.30,0000.86
2023-09-05 09:24:00,SystemResetWarning,0828.1,5.00,000.00,028.1,025.6,000.0,036.6,029.4,22.8,0000.0,0004.45,0001.30,0000.86
2023-09-05 09:25:00,SystemResetWarning,0828.1,5.00,000.00,028.1,025.9,000.0,036.6,029.5,22.8,0000.0,0004.57,0001.34,0000.87
2023-09-05 09:26:00,SystemResetWarning,0828.2,4.99,000.00,028.1,026.1,000.0,036.6,029.6,22.8,0000.0,0004.53,0001.31,0000.87
2023-09-05 09:27:00,SystemResetWarning,0828.1,5.00,000.00,028.1,026.4,000.0,036.6,029.7,22.8,0000.0,0004.47,0001.27,0000.86
2023-09-05 09:28:00,SystemResetWarning,0828.1,5.00,000.00,028.1,026.5,000.0,036.6,029.7,22.8,0000.0,0004.73,0001.30,0000.85
2023-09-05 09:29:00,SystemResetWarning,0828.2,5.00,000.00,028.2,026.7,000.0,036.6,029.8,23.0,0000.0,0004.85,0001.35,0000.86
2023-09-05 09:30:00,SystemResetWarning,0828.2,5.00,000.00,028.2,026.8,000.0,036.6,029.8,23.1,0000.0,0004.62,0001.34,0000.86
2023-09-05 09:31:00,SystemResetWarning,0828.2,5.00,000.00,028.2,026.9,000.0,036.6,029.8,23.1,0000.0,0004.01,0001.33,0000.85
2023-09-05 09:32:00,SystemResetWarning,0828.1,5.00,000.00,028.2,027.0,000.0,036.6,029.9,22.9,0000.0,0004.06,0001.35,0000.86
2023-09-05 09:33:00,SystemResetWarning,0828.2,5.00,000.00,028.3,027.0,000.0,036.6,029.9,22.9,0000.0,0003.71,0001.31,0000.86
2023-09-05 09:34:00,SystemResetWarning,0828.3,5.00,000.00,028.3,027.1,000.0,036.6,030.0,22.7,0000.0,0003.80,0001.34,0000.87
2023-09-05 09:35:00,SystemResetWarning,0828.3,5.00,000.00,028.3,027.1,000.0,036.7,030.0,22.5,0000.0,0003.85,0001.35,0000.87
2023-09-05 09:36:00,SystemResetWarning,0828.3,4.99,000.00,028.3,027.2,000.0,036.7,030.0,22.8,0000.0,0003.73,0001.30,0000.87
2023-09-05 09:37:00,SystemResetWarning,0828.4,5.01,000.00,028.4,027.2,000.0,036.7,030.0,22.8,0000.0,0003.70,0001.30,0000.88
2023-09-05 09:38:00,SystemResetWarning,0828.2,5.01,000.00,028.4,027.2,000.0,036.7,030.1,22.6,0000.0,0003.64,0001.29,0000.89
2023-09-05 09:39:00,SystemResetWarning,0828.2,5.00,000.00,028.4,027.3,000.0,036.7,030.1,22.5,0000.0,0003.16,0001.31,0000.89
2023-09-05 09:40:00,SystemResetWarning,0828.3,4.99,000.00,028.4,027.3,000.0,036.7,030.1,22.5,0000.0,0002.77,0001.28,0000.88
2023-09-05 09:41:00,SystemResetWarning,0828.3,4.99,000.00,028.5,027.3,000.0,036.7,030.1,22.5,0000.0,0002.69,0001.28,0000.87
2023-09-05 09:42:00,SystemResetWarning,0828.3,5.01,000.00,028.5,027.3,000.0,036.7,030.2,22.6,0000.0,0002.59,0001.28,0000.87
2023-09-05 09:43:00,SystemResetWarning,0828.4,5.01,000.00,028.5,027.4,000.0,036.8,030.2,22.6,0000.0,0002.46,0001.25,0000.86
2023-09-05 09:44:00,SystemResetWarning,0828.3,5.00,000.00,028.5,027.4,000.0,036.8,030.2,22.7,0000.0,0002.55,0001.28,0000.85
2023-09-05 09:45:00,SystemResetWarning,0828.3,5.00,000.00,028.5,027.5,000.0,036.8,030.2,22.6,0000.0,0002.68,0001.30,0000.84
2023-09-05 09:46:00,SystemResetWarning,0828.4,5.01,000.00,028.6,027.5,000.0,036.8,030.2,22.8,0000.0,0002.71,0001.31,0000.84
2023-09-05 09:47:00,SystemResetWarning,0828.4,5.00,000.00,028.6,027.5,000.0,036.8,030.2,22.9,0000.0,0002.72,0001.34,0000.85
2023-09-05 09:48:00,SystemResetWarning,0828.4,4.99,000.00,028.6,027.5,000.0,036.9,030.2,22.8,0000.0,0002.93,0001.38,0000.85
2023-09-05 09:49:00,SystemResetWarning,0828.4,4.99,000.00,028.6,027.5,000.0,036.9,030.2,22.7,0000.0,0003.06,0001.41,0000.85
2023-09-05 09:50:00,SystemResetWarning,0828.4,5.00,000.00,028.6,027.5,000.0,036.9,030.2,22.6,0000.0,0002.82,0001.38,0000.86
2023-09-05 09:51:00,SystemResetWarning,0828.4,5.00,000.00,028.6,027.5,000.0,036.9,030.3,22.6,0000.0,0002.60,0001.35,0000.86
2023-09-05 09:52:00,SystemResetWarning,0828.3,5.00,000.00,028.7,027.5,000.0,036.9,030.3,22.6,0000.0,0002.62,0001.33,0000.87
2023-09-05 09:53:00,SystemResetWarning,0828.4,5.01,000.00,028.7,027.6,000.0,036.9,030.3,22.5,0000.0,0002.85,0001.36,0000.87
2023-09-05 09:54:00,SystemResetWarning,0828.4,5.01,000.00,028.7,027.6,000.0,037.0,030.4,22.4,0000.0,0002.83,0001.34,0000.86
2023-09-05 09:55:00,SystemResetWarning,0828.4,5.00,000.00,028.7,027.6,000.0,037.0,030.4,22.4,0000.0,0003.15,0001.34,0000.86
2023-09-05 09:56:00,SystemResetWarning,0828.6,4.99,000.00,028.8,027.6,000.0,037.0,030.4,22.6,0000.0,0004.42,0001.33,0000.87
2023-09-05 09:57:00,SystemResetWarning,0828.5,4.99,000.00,028.7,026.3,000.0,036.9,030.0,22.8,0000.0,0004.39,0001.32,0000.87
2023-09-05 09:58:00,SystemResetWarning,0828.4,5.01,000.00,028.6,024.7,000.0,036.9,029.6,23.0,0000.0,0004.43,0001.34,0000.87
2023-09-05 09:59:00,SystemResetWarning,0828.4,5.00,000.00,028.4,024.4,000.0,036.8,029.4,23.1,0000.0,0004.51,0001.40,0000.86
